Time,TemperatureF,DewpointF,PressureIn,WindDirection,WindDirectionDegrees,WindSpeedMPH,WindSpeedGustMPH,Humidity,HourlyPrecipIn,Conditions,Clouds,dailyrainin,SoftwareType,DateUTC
2013-07-06 00:04:00,48.5,-99.9,29.65,SE,131,0.0,0.0,1,0.00,,,0.00,WeatherCatV1.13B119,2013-07-06 07:04:00,
2013-07-06 00:09:00,48.4,-99.9,29.65,SE,132,0.0,0.0,1,0.00,,,0.00,WeatherCatV1.13B119,2013-07-06 07:09:00,
2013-07-06 00:14:00,48.4,-99.9,29.65,SE,132,0.0,0.0,1,0.00,,,0.00,WeatherCatV1.13B119,2013-07-06 07:14:00,
2013-07-06 00:19:00,48.3,-99.9,29.65,SE,132,0.0,0.0,1,0.00,,,0.00,WeatherCatV1.13B119,2013-07-06 07:19:00,
2013-07-06 00:24:00,48.3,-99.9,29.65,SE,130,0.0,0.0,1,0.00,,,0.00,WeatherCatV1.13B119,2013-07-06 07:24:00,
2013-07-06 00:29:00,48.2,-99.9,29.65,SE,131,0.0,0.0,1,0.00,,,0.00,WeatherCatV1.13B119,2013-07-06 07:29:00,
2013-07-06 00:34:00,48.1,-99.9,29.65,SE,130,0.0,0.0,1,0.00,,,0.00,WeatherCatV1.13B119,2013-07-06 07:34:00,
2013-07-06 00:39:00,48.1,-99.9,29.65,SE,132,0.0,0.0,1,0.00,,,0.00,WeatherCatV1.13B119,2013-07-06 07:39:00,
2013-07-06 00:44:00,48.0,-99.9,29.65,SE,132,0.0,0.0,1,0.00,,,0.00,WeatherCatV1.13B119,2013-07-06 07:44:00,
2013-07-06 00:49:00,47.9,-99.9,29.65,SE,131,0.0,0.0,1,0.00,,,0.00,WeatherCatV1.13B119,2013-07-06 07:49:00,
2013-07-06 00:54:00,47.7,-99.9,29.65,SE,132,0.0,0.0,1,0.00,,,0.00,WeatherCatV1.13B119,2013-07-06 07:54:00,
2013-07-06 00:59:00,47.7,-99.9,29.65,SE,130,0.0,0.0,1,0.00,,,0.00,WeatherCatV1.13B119,2013-07-06 07:59:00,
2013-07-06 01:04:00,47.5,-99.9,29.65,SE,130,0.0,0.0,1,0.00,,,0.00,WeatherCatV1.13B119,2013-07-06 08:04:00,
2013-07-06 01:09:00,47.4,-99.9,29.64,SE,130,0.0,0.0,1,0.00,,,0.00,WeatherCatV1.13B119,2013-07-06 08:09:00,
2013-07-06 01:14:00,47.4,-99.9,29.65,SE,130,0.0,0.0,1,0.00,,,0.00,WeatherCatV1.13B119,2013-07-06 08:14:00,
2013-07-06 01:19:00,47.4,-99.9,29.65,SE,131,0.0,0.0,1,0.00,,,0.00,WeatherCatV1.13B119,2013-07-06 08:19:00,
2013-07-06 01:24:00,47.3,-99.9,29.65,SE,131,0.0,0.0,1,0.00,,,0.00,WeatherCatV1.13B119,2013-07-06 08:24:00,
2013-07-06 01:29:00,47.2,-99.9,29.65,SE,130,0.0,0.0,1,0.00,,,0.00,WeatherCatV1.13B119,2013-07-06 08:29:00,
2013-07-06 01:34:00,47.2,-99.9,29.65,SE,130,0.0,0.0,1,0.00,,,0.00,WeatherCatV1.13B119,2013-07-06 08:34:00,
2013-07-06 01:39:00,47.1,-99.9,29.64,SE,130,0.0,0.0,1,0.00,,,0.00,WeatherCatV1.13B119,2013-07-06 08:39:00,
2013-07-06 01:44:00,46.9,-99.9,29.65,SE,132,0.0,0.0,1,0.00,,,0.00,WeatherCatV1.13B119,2013-07-06 08:44:00,
2013-07-06 01:49:00,46.8,-99.9,29.64,SE,131,0.0,0.0,1,0.00,,,0.00,WeatherCatV1.13B119,2013-07-06 08:49:00,
2013-07-06 01:54:00,46.8,-99.9,29.65,SE,131,0.0,0.0,1,0.00,,,0.00,WeatherCatV1.13B119,2013-07-06 08:54:00,
2013-07-06 01:59:00,46.8,-99.9,29.65,SE,131,0.0,0.0,1,0.00,,,0.00,WeatherCatV1.13B119,2013-07-06 08:59:00,
2013-07-06 02:04:00,46.8,-99.9,29.65,SE,130,0.0,0.0,1,0.00,,,0.00,WeatherCatV1.13B119,2013-07-06 09:04:00,
2013-07-06 02:09:00,46.8,-99.9,29.65,SE,130,0.0,0.0,1,0.00,,,0.00,WeatherCatV1.13B119,2013-07-06 09:09:00,
2013-07-06 02:14:00,46.7,-99.9,29.65,SE,131,0.0,0.0,1,0.00,,,0.00,WeatherCatV1.13B119,2013-07-06 09:14:00,
2013-07-06 02:19:00,46.6,-99.9,29.65,SE,130,0.0,0.0,1,0.00,,,0.00,WeatherCatV1.13B119,2013-07-06 09:19:00,
2013-07-06 02:24:00,46.4,-99.9,29.65,SE,130,0.0,0.0,1,0.00,,,0.00,WeatherCatV1.13B119,2013-07-06 09:24:00,
2013-07-06 02:29:00,46.3,-99.9,29.65,SE,131,0.0,0.0,1,0.00,,,0.00,WeatherCatV1.13B119,2013-07-06 09:29:00,
2013-07-06 02:34:00,46.1,-99.9,29.65,SE,131,0.0,0.0,1,0.00,,,0.00,WeatherCatV1.13B119,2013-07-06 09:34:00,
2013-07-06 02:39:00,45.9,-99.9,29.65,SE,130,0.0,0.0,1,0.00,,,0.00,WeatherCatV1.13B119,2013-07-06 09:39:00,
2013-07-06 02:44:00,45.7,-99.9,29.65,SE,130,0.0,0.0,1,0.00,,,0.00,WeatherCatV1.13B119,2013-07-06 09:44:00,
2013-07-06 02:49:00,45.7,-99.9,29.65,SE,130,0.0,0.0,1,0.00,,,0.00,WeatherCatV1.13B119,2013-07-06 09:49:00,
2013-07-06 02:54:00,45.7,-99.9,29.65,SE,130,0.0,0.0,1,0.00,,,0.00,WeatherCatV1.13B119,2013-07-06 09:54:00,
2013-07-06 02:59:00,45.7,-99.9,29.65,SE,130,0.0,0.0,1,0.00,,,0.00,WeatherCatV1.13B119,2013-07-06 09:59:00,
2013-07-06 03:04:00,45.9,-99.9,29.65,SE,131,0.0,0.0,1,0.00,,,0.00,WeatherCatV1.13B119,2013-07-06 10:04:00,
2013-07-06 03:09:00,45.8,-99.9,29.65,SE,130,0.0,0.0,1,0.00,,,0.00,WeatherCatV1.13B119,2013-07-06 10:09:00,
2013-07-06 03:14:00,45.9,-99.9,29.65,SE,130,0.0,0.0,1,0.00,,,0.00,WeatherCatV1.13B119,2013-07-06 10:14:00,
2013-07-06 03:19:00,46.0,-99.9,29.65,SE,130,0.0,0.0,1,0.00,,,0.00,WeatherCatV1.13B119,2013-07-06 10:19:00,
2013-07-06 03:24:00,46.1,-99.9,29.65,ESE,102,0.0,0.0,1,0.00,,,0.00,WeatherCatV1.13B119,2013-07-06 10:24:00,
2013-07-06 03:29:00,46.1,-99.9,29.65,East,100,2.0,2.0,1,0.00,,,0.00,WeatherCatV1.13B119,2013-07-06 10:29:00,
2013-07-06 03:34:00,46.2,-99.9,29.65,East,86,2.0,3.0,1,0.00,,,0.00,WeatherCatV1.13B119,2013-07-06 10:34:00,
2013-07-06 03:39:00,46.2,-99.9,29.65,East,98,1.0,1.0,1,0.00,,,0.00,WeatherCatV1.13B119,2013-07-06 10:39:00,
2013-07-06 03:44:00,46.1,-99.9,29.65,East,98,1.0,2.0,1,0.00,,,0.00,WeatherCatV1.13B119,2013-07-06 10:44:00,
2013-07-06 03:49:00,46.2,-99.9,29.66,ESE,105,0.0,0.0,1,0.00,,,0.00,WeatherCatV1.13B119,2013-07-06 10:49:00,
2013-07-06 03:54:00,46.1,-99.9,29.65,ESE,105,0.0,0.0,1,0.00,,,0.00,WeatherCatV1.13B119,2013-07-06 10:54:00,
2013-07-06 03:59:00,46.2,-99.9,29.65,ESE,105,0.0,0.0,1,0.00,,,0.00,WeatherCatV1.13B119,2013-07-06 10:59:00,
2013-07-06 04:04:00,46.1,-99.9,29.66,ESE,105,0.0,0.0,1,0.00,,,0.00,WeatherCatV1.13B119,2013-07-06 11:04:00,
2013-07-06 04:09:00,46.0,-99.9,29.66,ESE,105,1.0,1.0,1,0.00,,,0.00,WeatherCatV1.13B119,2013-07-06 11:09:00,
2013-07-06 04:14:00,45.9,-99.9,29.66,ESE,105,1.0,1.0,1,0.00,,,0.00,WeatherCatV1.13B119,2013-07-06 11:14:00,
2013-07-06 04:19:00,45.9,-99.9,29.66,ESE,105,0.0,1.0,1,0.00,,,0.00,WeatherCatV1.13B119,2013-07-06 11:19:00,
2013-07-06 04:24:00,45.9,-99.9,29.66,ESE,105,0.0,0.0,1,0.00,,,0.00,WeatherCatV1.13B119,2013-07-06 11:24:00,
2013-07-06 04:29:00,45.9,-99.9,29.66,East,96,0.0,0.0,1,0.00,,,0.00,WeatherCatV1.13B119,2013-07-06 11:29:00,
2013-07-06 04:34:00,45.9,-99.9,29.66,East,98,0.0,0.0,1,0.00,,,0.00,WeatherCatV1.13B119,2013-07-06 11:34:00,
2013-07-06 04:39:00,45.9,-99.9,29.66,ESE,108,0.0,0.0,1,0.00,,,0.00,WeatherCatV1.13B119,2013-07-06 11:39:00,
2013-07-06 04:44:00,45.8,-99.9,29.66,ESE,108,0.0,0.0,1,0.00,,,0.00,WeatherCatV1.13B119,2013-07-06 11:44:00,
2013-07-06 04:49:00,45.9,-99.9,29.66,ESE,107,0.0,0.0,1,0.00,,,0.00,WeatherCatV1.13B119,2013-07-06 11:49:00,
2013-07-06 04:54:00,45.9,-99.9,29.66,ESE,108,0.0,0.0,1,0.00,,,0.00,WeatherCatV1.13B119,2013-07-06 11:54:00,
2013-07-06 04:59:00,45.9,-99.9,29.66,ESE,108,0.0,0.0,1,0.00,,,0.00,WeatherCatV1.13B119,2013-07-06 11:59:00,
2013-07-06 05:04:00,45.9,-99.9,29.66,ESE,108,0.0,0.0,1,0.00,,,0.00,WeatherCatV1.13B119,2013-07-06 12:04:00,
2013-07-06 05:09:00,45.9,-99.9,29.66,ESE,108,0.0,0.0,1,0.00,,,0.00,WeatherCatV1.13B119,2013-07-06 12:09:00,
2013-07-06 05:14:00,45.8,-99.9,29.67,ESE,108,0.0,0.0,1,0.00,,,0.00,WeatherCatV1.13B119,2013-07-06 12:14:00,
2013-07-06 05:19:00,45.9,-99.9,29.67,ESE,107,0.0,0.0,1,0.00,,,0.00,WeatherCatV1.13B119,2013-07-06 12:19:00,
2013-07-06 05:24:00,46.0,-99.9,29.67,ESE,108,0.0,0.0,1,0.00,,,0.00,WeatherCatV1.13B119,2013-07-06 12:24:00,
2013-07-06 05:29:00,45.8,-99.9,29.67,ESE,108,0.0,0.0,1,0.00,,,0.00,WeatherCatV1.13B119,2013-07-06 12:29:00,
2013-07-06 05:34:00,45.5,-99.9,29.67,ESE,107,0.0,0.0,1,0.00,,,0.00,WeatherCatV1.13B119,2013-07-06 12:34:00,
2013-07-06 05:39:00,45.3,-99.9,29.67,ESE,108,0.0,0.0,1,0.00,,,0.00,WeatherCatV1.13B119,2013-07-06 12:39:00,
2013-07-06 05:44:00,45.1,-99.9,29.67,ESE,108,0.0,0.0,1,0.00,,,0.00,WeatherCatV1.13B119,2013-07-06 12:44:00,
2013-07-06 05:49:00,45.0,-99.9,29.67,ESE,108,0.0,0.0,1,0.00,,,0.00,WeatherCatV1.13B119,2013-07-06 12:49:00,
2013-07-06 05:54:00,45.2,-99.9,29.67,ESE,108,0.0,0.0,1,0.00,,,0.00,WeatherCatV1.13B119,2013-07-06 12:54:00,
2013-07-06 05:59:00,45.2,-99.9,29.68,ESE,107,0.0,0.0,1,0.00,,,0.00,WeatherCatV1.13B119,2013-07-06 12:59:00,
2013-07-06 06:04:00,45.2,-99.9,29.68,ESE,108,0.0,0.0,1,0.00,,,0.00,WeatherCatV1.13B119,2013-07-06 13:04:00,
2013-07-06 06:09:00,45.2,-99.9,29.68,ESE,108,0.0,0.0,1,0.00,,,0.00,WeatherCatV1.13B119,2013-07-06 13:09:00,
2013-07-06 06:14:00,45.4,-99.9,29.68,ESE,108,0.0,0.0,1,0.00,,,0.00,WeatherCatV1.13B119,2013-07-06 13:14:00,
2013-07-06 06:19:00,45.6,-99.9,29.68,ESE,108,0.0,0.0,1,0.00,,,0.00,WeatherCatV1.13B119,2013-07-06 13:19:00,
2013-07-06 06:24:00,45.6,-99.9,29.68,ESE,107,0.0,0.0,1,0.00,,,0.00,WeatherCatV1.13B119,2013-07-06 13:24:00,
2013-07-06 06:29:00,45.5,-99.9,29.68,ESE,108,0.0,0.0,1,0.00,,,0.00,WeatherCatV1.13B119,2013-07-06 13:29:00,
2013-07-06 06:34:00,45.4,-99.9,29.68,ESE,108,0.0,0.0,1,0.00,,,0.00,WeatherCatV1.13B119,2013-07-06 13:34:00,
2013-07-06 06:39:00,45.3,-99.9,29.68,ESE,108,0.0,0.0,1,0.00,,,0.00,WeatherCatV1.13B119,2013-07-06 13:39:00,
2013-07-06 06:44:00,45.3,-99.9,29.68,ESE,108,0.0,0.0,1,0.00,,,0.00,WeatherCatV1.13B119,2013-07-06 13:44:00,
2013-07-06 06:49:00,45.3,-99.9,29.68,ESE,108,0.0,0.0,1,0.00,,,0.00,WeatherCatV1.13B119,2013-07-06 13:49:00,
2013-07-06 06:54:00,45.5,-99.9,29.68,ESE,108,0.0,0.0,1,0.00,,,0.00,WeatherCatV1.13B119,2013-07-06 13:54:00,
2013-07-06 06:59:00,45.7,-99.9,29.68,ESE,108,0.0,0.0,1,0.00,,,0.00,WeatherCatV1.13B119,2013-07-06 13:59:00,
2013-07-06 07:04:00,46.0,-99.9,29.69,ESE,107,0.0,0.0,1,0.00,,,0.00,WeatherCatV1.13B119,2013-07-06 14:04:00,
2013-07-06 07:09:00,46.5,-99.9,29.69,ESE,108,0.0,0.0,1,0.00,,,0.00,WeatherCatV1.13B119,2013-07-06 14:09:00,
2013-07-06 07:14:00,46.8,-99.9,29.68,ESE,108,0.0,0.0,1,0.00,,,0.00,WeatherCatV1.13B119,2013-07-06 14:14:00,
2013-07-06 07:19:00,46.8,-99.9,29.69,ESE,107,0.0,0.0,1,0.00,,,0.00,WeatherCatV1.13B119,2013-07-06 14:19:00,
2013-07-06 07:24:00,47.3,-99.9,29.69,ESE,108,0.0,0.0,1,0.00,,,0.00,WeatherCatV1.13B119,2013-07-06 14:24:00,
2013-07-06 07:29:00,47.6,-99.9,29.69,ESE,108,0.0,0.0,1,0.00,,,0.00,WeatherCatV1.13B119,2013-07-06 14:29:00,
2013-07-06 07:34:00,48.0,-99.9,29.69,ESE,108,0.0,0.0,1,0.00,,,0.00,WeatherCatV1.13B119,2013-07-06 14:34:00,
2013-07-06 07:39:00,48.4,-99.9,29.69,SSE,149,0.0,0.0,1,0.00,,,0.00,WeatherCatV1.13B119,2013-07-06 14:39:00,
2013-07-06 07:44:00,48.7,-99.9,29.69,SSE,150,0.0,0.0,1,0.00,,,0.00,WeatherCatV1.13B119,2013-07-06 14:44:00,
2013-07-06 07:49:00,49.0,-99.9,29.69,SSE,167,0.0,0.0,1,0.00,,,0.00,WeatherCatV1.13B119,2013-07-06 14:49:00,
2013-07-06 07:54:00,49.3,-99.9,29.69,SSW,195,0.0,0.0,1,0.00,,,0.00,WeatherCatV1.13B119,2013-07-06 14:54:00,
2013-07-06 07:59:00,49.5,-99.9,29.69,SE,134,0.0,0.0,1,0.00,,,0.00,WeatherCatV1.13B119,2013-07-06 14:59:00,
2013-07-06 08:04:00,49.9,-99.9,29.70,SE,133,0.0,0.0,1,0.00,,,0.00,WeatherCatV1.13B119,2013-07-06 15:04:00,
2013-07-06 08:09:00,50.6,-99.9,29.70,SE,126,0.0,0.0,1,0.00,,,0.00,WeatherCatV1.13B119,2013-07-06 15:09:00,
2013-07-06 08:14:00,51.1,-99.9,29.70,East,81,2.0,5.0,1,0.00,,,0.00,WeatherCatV1.13B119,2013-07-06 15:14:00,
2013-07-06 08:19:00,52.1,-99.9,29.70,ESE,112,0.0,4.0,1,0.00,,,0.00,WeatherCatV1.13B119,2013-07-06 15:19:00,
2013-07-06 08:24:00,53.9,-99.9,29.70,ESE,103,1.0,3.0,1,0.00,,,0.00,WeatherCatV1.13B119,2013-07-06 15:24:00,
2013-07-06 08:29:00,56.1,2.3,29.70,WNW,302,3.0,3.0,11,0.00,,,0.00,WeatherCatV1.13B119,2013-07-06 15:29:00,
2013-07-06 08:34:00,57.4,39.9,29.70,ENE,74,2.0,3.0,52,0.00,,,0.00,WeatherCatV1.13B119,2013-07-06 15:34:00,
2013-07-06 08:39:00,57.6,44.2,29.70,South,179,2.0,3.0,61,0.00,,,0.00,WeatherCatV1.13B119,2013-07-06 15:39:00,
2013-07-06 08:44:00,58.2,47.7,29.70,ESE,105,1.0,5.0,68,0.00,,,0.00,WeatherCatV1.13B119,2013-07-06 15:44:00,
2013-07-06 08:49:00,58.2,48.8,29.70,ESE,110,1.0,4.0,71,0.00,,,0.00,WeatherCatV1.13B119,2013-07-06 15:49:00,
2013-07-06 08:54:00,58.6,50.3,29.70,ESE,118,1.0,6.0,74,0.00,,,0.00,WeatherCatV1.13B119,2013-07-06 15:54:00,
2013-07-06 08:59:00,58.6,50.3,29.70,SE,140,0.0,4.0,74,0.00,,,0.00,WeatherCatV1.13B119,2013-07-06 15:59:00,
2013-07-06 09:04:00,59.1,50.8,29.71,SE,132,0.0,1.0,74,0.00,,,0.00,WeatherCatV1.13B119,2013-07-06 16:04:00,
2013-07-06 09:09:00,59.6,52.0,29.70,South,178,0.0,3.0,76,0.00,,,0.00,WeatherCatV1.13B119,2013-07-06 16:09:00,
2013-07-06 09:14:00,60.2,52.6,29.71,ENE,78,2.0,4.0,76,0.00,,,0.00,WeatherCatV1.13B119,2013-07-06 16:14:00,
2013-07-06 09:24:00,61.0,53.0,29.71,ENE,74,2.0,4.0,75,0.00,,,0.00,WeatherCatV1.13B119,2013-07-06 16:24:00,
2013-07-06 09:29:00,61.0,53.0,29.71,ESE,112,0.0,4.0,75,0.00,,,0.00,WeatherCatV1.13B119,2013-07-06 16:29:00,
2013-07-06 09:39:00,61.2,53.2,29.70,NNE,17,5.0,5.0,75,0.00,,,0.00,WeatherCatV1.13B119,2013-07-06 16:39:00,
2013-07-06 09:44:00,61.8,53.8,29.70,ENE,78,2.0,5.0,75,0.00,,,0.00,WeatherCatV1.13B119,2013-07-06 16:44:00,
2013-07-06 09:49:00,61.8,53.4,29.70,West,269,5.0,5.0,74,0.00,,,0.00,WeatherCatV1.13B119,2013-07-06 16:49:00,
2013-07-06 09:54:00,61.8,53.4,29.70,NW,306,5.0,5.0,74,0.00,,,0.00,WeatherCatV1.13B119,2013-07-06 16:54:00,
2013-07-06 09:59:00,61.8,53.4,29.70,WSW,250,4.0,5.0,74,0.00,,,0.00,WeatherCatV1.13B119,2013-07-06 16:59:00,
2013-07-06 10:04:00,62.2,53.8,29.71,WSW,258,2.0,6.0,74,0.00,,,0.00,WeatherCatV1.13B119,2013-07-06 17:04:00,
2013-07-06 10:14:00,61.8,53.0,29.71,East,90,2.0,5.0,73,0.00,,,0.00,WeatherCatV1.13B119,2013-07-06 17:14:00,
2013-07-06 10:24:00,62.0,53.2,29.71,SE,134,0.0,4.0,73,0.00,,,0.00,WeatherCatV1.13B119,2013-07-06 17:24:00,
2013-07-06 10:29:00,63.0,54.2,29.70,ESE,107,2.0,3.0,73,0.00,,,0.00,WeatherCatV1.13B119,2013-07-06 17:29:00,
2013-07-06 10:34:00,63.4,53.8,29.70,WNW,294,5.0,6.0,71,0.00,,,0.00,WeatherCatV1.13B119,2013-07-06 17:34:00,
2013-07-06 10:39:00,63.4,53.8,29.71,South,182,0.0,3.0,71,0.00,,,0.00,WeatherCatV1.13B119,2013-07-06 17:39:00,
2013-07-06 10:44:00,63.7,54.1,29.71,SE,134,1.0,4.0,71,0.00,,,0.00,WeatherCatV1.13B119,2013-07-06 17:44:00,
2013-07-06 10:54:00,65.3,54.9,29.70,West,265,2.0,4.0,69,0.00,,,0.00,WeatherCatV1.13B119,2013-07-06 17:54:00,
2013-07-06 10:59:00,65.9,55.4,29.70,West,263,1.0,6.0,69,0.00,,,0.00,WeatherCatV1.13B119,2013-07-06 17:59:00,
2013-07-06 11:24:00,66.6,54.9,29.70,West,279,6.0,7.0,66,0.00,,,0.00,WeatherCatV1.13B119,2013-07-06 18:24:00,
2013-07-06 11:49:00,67.5,55.7,29.70,WNW,298,2.0,6.0,66,0.00,,,0.00,WeatherCatV1.13B119,2013-07-06 18:49:00,
2013-07-06 11:54:00,67.4,55.6,29.70,WNW,294,3.0,4.0,66,0.00,,,0.00,WeatherCatV1.13B119,2013-07-06 18:54:00,
2013-07-06 12:04:00,69.0,56.7,29.70,SSW,200,1.0,3.0,65,0.00,,,0.00,WeatherCatV1.13B119,2013-07-06 19:04:00,
2013-07-06 12:09:00,69.6,56.4,29.70,WSW,241,2.0,4.0,63,0.00,,,0.00,WeatherCatV1.13B119,2013-07-06 19:09:00,
2013-07-06 12:19:00,69.9,55.8,29.70,SSW,209,3.0,4.0,61,0.00,,,0.00,WeatherCatV1.13B119,2013-07-06 19:19:00,
2013-07-06 12:24:00,69.2,55.6,29.70,NW,318,4.0,5.0,62,0.00,,,0.00,WeatherCatV1.13B119,2013-07-06 19:24:00,
2013-07-06 12:39:00,71.0,56.4,29.70,East,86,2.0,4.0,60,0.00,,,0.00,WeatherCatV1.13B119,2013-07-06 19:39:00,
2013-07-06 12:44:00,71.5,56.4,29.70,SW,226,3.0,6.0,59,0.00,,,0.00,WeatherCatV1.13B119,2013-07-06 19:44:00,
2013-07-06 12:50:00,71.8,56.2,29.69,NE,43,3.0,6.0,58,0.00,,,0.00,WeatherCatV1.13B119,2013-07-06 19:50:00,
2013-07-06 12:54:00,71.6,56.5,29.69,NNE,13,5.0,7.0,59,0.00,,,0.00,WeatherCatV1.13B119,2013-07-06 19:54:00,
2013-07-06 12:55:00,71.6,56.5,29.69,NE,45,3.0,8.0,59,0.00,,,0.00,WeatherCatV1.13B119,2013-07-06 19:55:00,
2013-07-06 13:00:00,71.5,56.4,29.70,NE,38,4.0,7.0,59,0.00,,,0.00,WeatherCatV1.13B119,2013-07-06 20:00:00,
2013-07-06 13:05:00,71.5,56.4,29.70,NNE,22,4.0,8.0,59,0.00,,,0.00,WeatherCatV1.13B119,2013-07-06 20:05:00,
2013-07-06 13:10:00,71.5,56.4,29.70,NNE,22,4.0,8.0,59,0.00,,,0.00,WeatherCatV1.13B119,2013-07-06 20:10:00,
2013-07-06 13:15:00,71.5,56.4,29.70,NNE,22,4.0,8.0,59,0.00,,,0.00,WeatherCatV1.13B119,2013-07-06 20:15:00,
2013-07-06 13:20:00,70.9,55.8,29.70,NNE,22,4.0,12.0,59,0.00,,,0.00,WeatherCatV1.13B119,2013-07-06 20:20:00,
2013-07-06 13:25:00,70.9,55.8,29.70,NNE,22,4.0,12.0,59,0.00,,,0.00,WeatherCatV1.13B119,2013-07-06 20:25:00,
2013-07-06 13:30:00,70.9,55.8,29.70,NNE,22,4.0,12.0,59,0.00,,,0.00,WeatherCatV1.13B119,2013-07-06 20:30:00,
2013-07-06 13:35:00,70.3,56.7,29.70,NNE,22,4.0,10.0,62,0.00,,,0.00,WeatherCatV1.13B119,2013-07-06 20:35:00,
2013-07-06 13:40:00,70.3,56.7,29.70,NNE,22,4.0,10.0,62,0.00,,,0.00,WeatherCatV1.13B119,2013-07-06 20:40:00,
2013-07-06 13:45:00,70.3,56.7,29.70,NNE,22,4.0,10.0,62,0.00,,,0.00,WeatherCatV1.13B119,2013-07-06 20:45:00,
2013-07-06 13:50:00,70.6,56.9,29.69,WNW,292,3.0,7.0,62,0.00,,,0.00,WeatherCatV1.13B119,2013-07-06 20:50:00,
2013-07-06 13:55:00,70.6,56.9,29.69,WNW,292,3.0,7.0,62,0.00,,,0.00,WeatherCatV1.13B119,2013-07-06 20:55:00,
2013-07-06 14:00:00,70.6,56.9,29.69,WNW,292,3.0,7.0,62,0.00,,,0.00,WeatherCatV1.13B119,2013-07-06 21:00:00,
2013-07-06 14:05:00,70.6,56.5,29.69,WNW,292,4.0,7.0,61,0.00,,,0.00,WeatherCatV1.13B119,2013-07-06 21:05:00,
2013-07-06 14:10:00,70.6,56.5,29.69,WNW,292,4.0,7.0,61,0.00,,,0.00,WeatherCatV1.13B119,2013-07-06 21:10:00,
2013-07-06 14:15:00,70.6,56.5,29.69,WNW,292,4.0,7.0,61,0.00,,,0.00,WeatherCatV1.13B119,2013-07-06 21:15:00,
2013-07-06 14:20:00,73.1,57.4,29.69,WNW,292,3.0,7.0,58,0.00,,,0.00,WeatherCatV1.13B119,2013-07-06 21:20:00,
2013-07-06 14:25:00,73.1,57.4,29.69,WNW,292,3.0,7.0,58,0.00,,,0.00,WeatherCatV1.13B119,2013-07-06 21:25:00,
2013-07-06 14:30:00,73.1,57.4,29.69,WNW,292,3.0,7.0,58,0.00,,,0.00,WeatherCatV1.13B119,2013-07-06 21:30:00,
2013-07-06 14:35:00,72.1,56.5,29.68,West,270,3.0,7.0,58,0.00,,,0.00,WeatherCatV1.13B119,2013-07-06 21:35:00,
2013-07-06 14:40:00,72.1,56.5,29.68,West,270,3.0,7.0,58,0.00,,,0.00,WeatherCatV1.13B119,2013-07-06 21:40:00,
2013-07-06 14:45:00,72.1,56.5,29.68,West,270,3.0,7.0,58,0.00,,,0.00,WeatherCatV1.13B119,2013-07-06 21:45:00,
2013-07-06 14:50:00,70.8,56.7,29.68,West,270,4.0,7.0,61,0.00,,,0.00,WeatherCatV1.13B119,2013-07-06 21:50:00,
2013-07-06 14:55:00,70.8,56.7,29.68,West,270,4.0,7.0,61,0.00,,,0.00,WeatherCatV1.13B119,2013-07-06 21:55:00,
2013-07-06 15:00:00,70.8,56.7,29.68,West,270,4.0,7.0,61,0.00,,,0.00,WeatherCatV1.13B119,2013-07-06 22:00:00,
2013-07-06 15:05:00,70.2,56.6,29.68,WNW,292,3.0,9.0,62,0.00,,,0.00,WeatherCatV1.13B119,2013-07-06 22:05:00,
2013-07-06 15:10:00,70.2,56.6,29.68,WNW,292,3.0,9.0,62,0.00,,,0.00,WeatherCatV1.13B119,2013-07-06 22:10:00,
2013-07-06 15:15:00,70.2,56.6,29.68,WNW,292,3.0,9.0,62,0.00,,,0.00,WeatherCatV1.13B119,2013-07-06 22:15:00,
2013-07-06 15:20:00,69.7,55.2,29.68,WNW,292,3.0,8.0,60,0.00,,,0.00,WeatherCatV1.13B119,2013-07-06 22:20:00,
2013-07-06 15:25:00,69.7,55.2,29.68,WNW,292,3.0,8.0,60,0.00,,,0.00,WeatherCatV1.13B119,2013-07-06 22:25:00,
2013-07-06 15:30:00,69.7,55.2,29.68,WNW,292,3.0,8.0,60,0.00,,,0.00,WeatherCatV1.13B119,2013-07-06 22:30:00,
2013-07-06 15:35:00,68.6,55.5,29.68,WNW,292,4.0,7.0,63,0.00,,,0.00,WeatherCatV1.13B119,2013-07-06 22:35:00,
2013-07-06 15:40:00,68.6,55.5,29.68,WNW,292,4.0,7.0,63,0.00,,,0.00,WeatherCatV1.13B119,2013-07-06 22:40:00,
2013-07-06 15:45:00,68.6,55.5,29.68,WNW,292,4.0,7.0,63,0.00,,,0.00,WeatherCatV1.13B119,2013-07-06 22:45:00,
2013-07-06 15:50:00,68.9,55.8,29.68,WNW,292,4.0,8.0,63,0.00,,,0.00,WeatherCatV1.13B119,2013-07-06 22:50:00,
2013-07-06 15:55:00,68.9,55.8,29.68,WNW,292,4.0,8.0,63,0.00,,,0.00,WeatherCatV1.13B119,2013-07-06 22:55:00,
2013-07-06 16:00:00,68.9,55.8,29.68,WNW,292,4.0,8.0,63,0.00,,,0.00,WeatherCatV1.13B119,2013-07-06 23:00:00,
2013-07-06 16:05:00,70.1,56.0,29.67,WNW,292,3.0,7.0,61,0.00,,,0.00,WeatherCatV1.13B119,2013-07-06 23:05:00,
2013-07-06 16:10:00,70.1,56.0,29.67,WNW,292,3.0,7.0,61,0.00,,,0.00,WeatherCatV1.13B119,2013-07-06 23:10:00,
2013-07-06 16:15:00,70.1,56.0,29.67,WNW,292,3.0,7.0,61,0.00,,,0.00,WeatherCatV1.13B119,2013-07-06 23:15:00,
2013-07-06 16:20:00,70.8,55.7,29.67,WNW,292,3.0,7.0,59,0.00,,,0.00,WeatherCatV1.13B119,2013-07-06 23:20:00,
2013-07-06 16:25:00,70.8,55.7,29.67,WNW,292,3.0,7.0,59,0.00,,,0.00,WeatherCatV1.13B119,2013-07-06 23:25:00,
2013-07-06 16:30:00,70.8,55.7,29.67,WNW,292,3.0,7.0,59,0.00,,,0.00,WeatherCatV1.13B119,2013-07-06 23:30:00,
2013-07-06 16:35:00,71.5,55.9,29.67,South,180,2.0,6.0,58,0.00,,,0.00,WeatherCatV1.13B119,2013-07-06 23:35:00,
2013-07-06 16:40:00,71.5,55.9,29.67,South,180,2.0,6.0,58,0.00,,,0.00,WeatherCatV1.13B119,2013-07-06 23:40:00,
2013-07-06 16:45:00,71.5,55.9,29.67,South,180,2.0,6.0,58,0.00,,,0.00,WeatherCatV1.13B119,2013-07-06 23:45:00,
2013-07-06 16:50:00,70.6,55.6,29.67,WNW,292,3.0,6.0,59,0.00,,,0.00,WeatherCatV1.13B119,2013-07-06 23:50:00,
2013-07-06 16:55:00,70.6,55.6,29.67,WNW,292,3.0,6.0,59,0.00,,,0.00,WeatherCatV1.13B119,2013-07-06 23:55:00,
2013-07-06 17:00:00,70.6,55.6,29.67,WNW,292,3.0,6.0,59,0.00,,,0.00,WeatherCatV1.13B119,2013-07-07 00:00:00,
2013-07-06 17:05:00,71.8,55.2,29.66,WNW,292,3.0,6.0,56,0.00,,,0.00,WeatherCatV1.13B119,2013-07-07 00:05:00,
2013-07-06 17:10:00,71.8,55.2,29.66,WNW,292,3.0,6.0,56,0.00,,,0.00,WeatherCatV1.13B119,2013-07-07 00:10:00,
2013-07-06 17:15:00,71.8,55.2,29.66,WNW,292,3.0,6.0,56,0.00,,,0.00,WeatherCatV1.13B119,2013-07-07 00:15:00,
2013-07-06 17:20:00,71.7,54.2,29.66,WNW,292,2.0,6.0,54,0.00,,,0.00,WeatherCatV1.13B119,2013-07-07 00:20:00,
2013-07-06 17:25:00,71.7,54.2,29.66,WNW,292,2.0,6.0,54,0.00,,,0.00,WeatherCatV1.13B119,2013-07-07 00:25:00,
2013-07-06 17:30:00,71.7,54.2,29.66,WNW,292,2.0,6.0,54,0.00,,,0.00,WeatherCatV1.13B119,2013-07-07 00:30:00,
2013-07-06 17:35:00,71.4,55.4,29.66,South,180,2.0,6.0,57,0.00,,,0.00,WeatherCatV1.13B119,2013-07-07 00:35:00,
2013-07-06 17:40:00,71.4,55.4,29.66,South,180,2.0,6.0,57,0.00,,,0.00,WeatherCatV1.13B119,2013-07-07 00:40:00,
2013-07-06 17:45:00,71.4,55.4,29.66,South,180,2.0,6.0,57,0.00,,,0.00,WeatherCatV1.13B119,2013-07-07 00:45:00,
2013-07-06 17:50:00,68.5,54.0,29.66,South,180,2.0,5.0,60,0.00,,,0.00,WeatherCatV1.13B119,2013-07-07 00:50:00,
2013-07-06 17:55:00,68.5,54.0,29.66,South,180,2.0,5.0,60,0.00,,,0.00,WeatherCatV1.13B119,2013-07-07 00:55:00,
2013-07-06 18:00:00,68.5,54.0,29.66,South,180,2.0,5.0,60,0.00,,,0.00,WeatherCatV1.13B119,2013-07-07 01:00:00,
2013-07-06 18:05:00,65.4,53.7,29.66,SSE,158,3.0,6.0,66,0.00,,,0.00,WeatherCatV1.13B119,2013-07-07 01:05:00,
2013-07-06 18:10:00,65.4,53.7,29.66,SSE,158,3.0,6.0,66,0.00,,,0.00,WeatherCatV1.13B119,2013-07-07 01:10:00,
2013-07-06 18:15:00,65.4,53.7,29.66,SSE,158,3.0,6.0,66,0.00,,,0.00,WeatherCatV1.13B119,2013-07-07 01:15:00,
2013-07-06 18:20:00,63.5,52.7,29.66,South,180,4.0,7.0,68,0.00,,,0.00,WeatherCatV1.13B119,2013-07-07 01:20:00,
2013-07-06 18:25:00,63.5,52.7,29.66,South,180,4.0,7.0,68,0.00,,,0.00,WeatherCatV1.13B119,2013-07-07 01:25:00,
2013-07-06 18:30:00,63.5,52.7,29.66,South,180,4.0,7.0,68,0.00,,,0.00,WeatherCatV1.13B119,2013-07-07 01:30:00,
2013-07-06 18:35:00,62.9,53.0,29.66,SSE,158,3.0,6.0,70,0.00,,,0.00,WeatherCatV1.13B119,2013-07-07 01:35:00,
2013-07-06 18:40:00,62.9,53.0,29.66,SSE,158,3.0,6.0,70,0.00,,,0.00,WeatherCatV1.13B119,2013-07-07 01:40:00,
2013-07-06 18:45:00,62.9,53.0,29.66,SSE,158,3.0,6.0,70,0.00,,,0.00,WeatherCatV1.13B119,2013-07-07 01:45:00,
2013-07-06 18:50:00,61.5,52.4,29.66,South,180,3.0,6.0,72,0.00,,,0.00,WeatherCatV1.13B119,2013-07-07 01:50:00,
2013-07-06 18:55:00,61.5,52.4,29.66,South,180,3.0,6.0,72,0.00,,,0.00,WeatherCatV1.13B119,2013-07-07 01:55:00,
2013-07-06 19:00:00,61.5,52.4,29.66,South,180,3.0,6.0,72,0.00,,,0.00,WeatherCatV1.13B119,2013-07-07 02:00:00,
2013-07-06 19:05:00,60.2,51.9,29.67,SSE,158,3.0,5.0,74,0.00,,,0.00,WeatherCatV1.13B119,2013-07-07 02:05:00,
2013-07-06 19:10:00,60.2,51.9,29.67,SSE,158,3.0,5.0,74,0.00,,,0.00,WeatherCatV1.13B119,2013-07-07 02:10:00,
2013-07-06 19:15:00,60.2,51.9,29.67,SSE,158,3.0,5.0,74,0.00,,,0.00,WeatherCatV1.13B119,2013-07-07 02:15:00,
2013-07-06 19:20:00,59.4,51.5,29.66,SSE,158,3.0,5.0,75,0.00,,,0.00,WeatherCatV1.13B119,2013-07-07 02:20:00,
2013-07-06 19:25:00,59.4,51.5,29.66,SSE,158,3.0,5.0,75,0.00,,,0.00,WeatherCatV1.13B119,2013-07-07 02:25:00,
2013-07-06 19:30:00,59.4,51.5,29.66,SSE,158,3.0,5.0,75,0.00,,,0.00,WeatherCatV1.13B119,2013-07-07 02:30:00,
2013-07-06 19:35:00,57.9,50.0,29.67,South,180,4.0,5.0,75,0.00,,,0.00,WeatherCatV1.13B119,2013-07-07 02:35:00,
2013-07-06 19:40:00,57.9,50.0,29.67,South,180,4.0,5.0,75,0.00,,,0.00,WeatherCatV1.13B119,2013-07-07 02:40:00,
2013-07-06 19:45:00,57.9,50.0,29.67,South,180,4.0,5.0,75,0.00,,,0.00,WeatherCatV1.13B119,2013-07-07 02:45:00,
2013-07-06 19:50:00,57.1,48.5,29.67,SSE,158,4.0,6.0,73,0.00,,,0.00,WeatherCatV1.13B119,2013-07-07 02:50:00,
2013-07-06 19:55:00,57.1,48.5,29.67,SSE,158,4.0,6.0,73,0.00,,,0.00,WeatherCatV1.13B119,2013-07-07 02:55:00,
2013-07-06 20:00:00,57.1,48.5,29.67,SSE,158,4.0,6.0,73,0.00,,,0.00,WeatherCatV1.13B119,2013-07-07 03:00:00,
2013-07-06 20:05:00,56.2,46.9,29.67,SSE,158,3.0,5.0,71,0.00,,,0.00,WeatherCatV1.13B119,2013-07-07 03:05:00,
2013-07-06 20:10:00,56.2,46.9,29.67,SSE,158,3.0,5.0,71,0.00,,,0.00,WeatherCatV1.13B119,2013-07-07 03:10:00,
2013-07-06 20:15:00,56.2,46.9,29.67,SSE,158,3.0,5.0,71,0.00,,,0.00,WeatherCatV1.13B119,2013-07-07 03:15:00,
2013-07-06 20:20:00,54.8,43.7,29.67,SSE,158,4.0,6.0,66,0.00,,,0.00,WeatherCatV1.13B119,2013-07-07 03:20:00,
2013-07-06 20:25:00,54.8,43.7,29.67,SSE,158,4.0,6.0,66,0.00,,,0.00,WeatherCatV1.13B119,2013-07-07 03:25:00,
2013-07-06 20:30:00,54.8,43.7,29.67,SSE,158,4.0,6.0,66,0.00,,,0.00,WeatherCatV1.13B119,2013-07-07 03:30:00,
2013-07-06 20:35:00,53.1,36.4,29.67,SSE,158,4.0,6.0,53,0.00,,,0.00,WeatherCatV1.13B119,2013-07-07 03:35:00,
2013-07-06 20:40:00,53.1,36.4,29.67,SSE,158,4.0,6.0,53,0.00,,,0.00,WeatherCatV1.13B119,2013-07-07 03:40:00,
2013-07-06 20:45:00,53.1,36.4,29.67,SSE,158,4.0,6.0,53,0.00,,,0.00,WeatherCatV1.13B119,2013-07-07 03:45:00,
2013-07-06 20:50:00,51.8,22.9,29.67,SSE,158,4.0,6.0,32,0.00,,,0.00,WeatherCatV1.13B119,2013-07-07 03:50:00,
2013-07-06 20:55:00,51.8,22.9,29.67,SSE,158,4.0,6.0,32,0.00,,,0.00,WeatherCatV1.13B119,2013-07-07 03:55:00,
2013-07-06 21:00:00,51.8,22.9,29.67,SSE,158,4.0,6.0,32,0.00,,,0.00,WeatherCatV1.13B119,2013-07-07 04:00:00,
2013-07-06 21:05:00,50.8,3.4,29.68,SSE,158,3.0,5.0,14,0.00,,,0.00,WeatherCatV1.13B119,2013-07-07 04:05:00,
2013-07-06 21:10:00,50.8,3.4,29.68,SSE,158,3.0,5.0,14,0.00,,,0.00,WeatherCatV1.13B119,2013-07-07 04:10:00,
2013-07-06 21:15:00,50.8,3.4,29.68,SSE,158,3.0,5.0,14,0.00,,,0.00,WeatherCatV1.13B119,2013-07-07 04:15:00,
2013-07-06 21:20:00,49.9,-47.0,29.69,SSE,158,2.0,4.0,1,0.00,,,0.00,WeatherCatV1.13B119,2013-07-07 04:20:00,
2013-07-06 21:25:00,49.9,-47.0,29.69,SSE,158,2.0,4.0,1,0.00,,,0.00,WeatherCatV1.13B119,2013-07-07 04:25:00,
2013-07-06 21:30:00,49.9,-47.0,29.69,SSE,158,2.0,4.0,1,0.00,,,0.00,WeatherCatV1.13B119,2013-07-07 04:30:00,
2013-07-06 21:35:00,49.1,50.0,29.69,SSE,158,1.0,2.0,1,0.00,,,0.00,WeatherCatV1.13B119,2013-07-07 04:35:00,
2013-07-06 21:40:00,49.1,50.0,29.69,SSE,158,1.0,2.0,1,0.00,,,0.00,WeatherCatV1.13B119,2013-07-07 04:40:00,
2013-07-06 21:45:00,49.1,50.0,29.69,SSE,158,1.0,2.0,1,0.00,,,0.00,WeatherCatV1.13B119,2013-07-07 04:45:00,
2013-07-06 21:50:00,49.3,50.0,29.70,SSE,158,0.0,0.0,1,0.00,,,0.00,WeatherCatV1.13B119,2013-07-07 04:50:00,
2013-07-06 21:55:00,49.3,50.0,29.70,SSE,158,0.0,0.0,1,0.00,,,0.00,WeatherCatV1.13B119,2013-07-07 04:55:00,
2013-07-06 22:00:00,49.3,50.0,29.70,SSE,158,0.0,0.0,1,0.00,,,0.00,WeatherCatV1.13B119,2013-07-07 05:00:00,
2013-07-06 22:05:00,49.8,50.0,29.70,SSE,158,0.0,0.0,1,0.00,,,0.00,WeatherCatV1.13B119,2013-07-07 05:05:00,
2013-07-06 22:10:00,49.8,50.0,29.70,SSE,158,0.0,0.0,1,0.00,,,0.00,WeatherCatV1.13B119,2013-07-07 05:10:00,
2013-07-06 22:15:00,49.8,50.0,29.70,SSE,158,0.0,0.0,1,0.00,,,0.00,WeatherCatV1.13B119,2013-07-07 05:15:00,
2013-07-06 22:20:00,49.9,50.0,29.69,SSE,158,0.0,0.0,1,0.00,,,0.00,WeatherCatV1.13B119,2013-07-07 05:20:00,
2013-07-06 22:25:00,49.9,50.0,29.69,SSE,158,0.0,0.0,1,0.00,,,0.00,WeatherCatV1.13B119,2013-07-07 05:25:00,
2013-07-06 22:30:00,49.9,50.0,29.69,SSE,158,0.0,0.0,1,0.00,,,0.00,WeatherCatV1.13B119,2013-07-07 05:30:00,
2013-07-06 22:35:00,49.4,50.0,29.70,SSE,158,0.0,0.0,1,0.00,,,0.00,WeatherCatV1.13B119,2013-07-07 05:35:00,
2013-07-06 22:40:00,49.4,50.0,29.70,SSE,158,0.0,0.0,1,0.00,,,0.00,WeatherCatV1.13B119,2013-07-07 05:40:00,
2013-07-06 22:45:00,49.4,50.0,29.70,SSE,158,0.0,0.0,1,0.00,,,0.00,WeatherCatV1.13B119,2013-07-07 05:45:00,
2013-07-06 22:50:00,48.9,50.0,29.70,SSE,158,0.0,0.0,1,0.00,,,0.00,WeatherCatV1.13B119,2013-07-07 05:50:00,
2013-07-06 22:55:00,48.9,50.0,29.70,SSE,158,0.0,0.0,1,0.00,,,0.00,WeatherCatV1.13B119,2013-07-07 05:55:00,
2013-07-06 23:00:00,48.9,50.0,29.70,SSE,158,0.0,0.0,1,0.00,,,0.00,WeatherCatV1.13B119,2013-07-07 06:00:00,
2013-07-06 23:05:00,48.4,50.0,29.70,SSE,158,0.0,0.0,1,0.00,,,0.00,WeatherCatV1.13B119,2013-07-07 06:05:00,
2013-07-06 23:10:00,48.4,50.0,29.70,SSE,158,0.0,0.0,1,0.00,,,0.00,WeatherCatV1.13B119,2013-07-07 06:10:00,
2013-07-06 23:15:00,48.4,50.0,29.70,SSE,158,0.0,0.0,1,0.00,,,0.00,WeatherCatV1.13B119,2013-07-07 06:15:00,
2013-07-06 23:20:00,48.2,50.0,29.69,East,90,0.0,2.0,1,0.00,,,0.00,WeatherCatV1.13B119,2013-07-07 06:20:00,
2013-07-06 23:25:00,48.2,50.0,29.69,East,90,0.0,2.0,1,0.00,,,0.00,WeatherCatV1.13B119,2013-07-07 06:25:00,
2013-07-06 23:30:00,48.2,50.0,29.69,East,90,0.0,2.0,1,0.00,,,0.00,WeatherCatV1.13B119,2013-07-07 06:30:00,
2013-07-06 23:35:00,48.1,50.0,29.70,ENE,68,1.0,4.0,1,0.00,,,0.00,WeatherCatV1.13B119,2013-07-07 06:35:00,
2013-07-06 23:40:00,48.1,50.0,29.70,ENE,68,1.0,4.0,1,0.00,,,0.00,WeatherCatV1.13B119,2013-07-07 06:40:00,
2013-07-06 23:45:00,48.1,50.0,29.70,ENE,68,1.0,4.0,1,0.00,,,0.00,WeatherCatV1.13B119,2013-07-07 06:45:00,
2013-07-06 23:50:00,48.6,50.0,29.70,ESE,112,2.0,4.0,1,0.00,,,0.00,WeatherCatV1.13B119,2013-07-07 06:50:00,
2013-07-06 23:55:00,48.6,50.0,29.70,ESE,112,2.0,4.0,1,0.00,,,0.00,WeatherCatV1.13B119,2013-07-07 06:55:00,